When you browse on this site, cookies collect data to enhance your experience and personalize the content and advertising you see.
Visit our Privacy Policy to learn more. By continuing to use the site, you agree to this use of cookies and data.
  • In Switzerland
  • List of Countries
  • For 7 days
  • Water Temperature
  • Satellite Maps
  • Weather Map
  • Weather Widgets
  • user-avatar
    Login

    Hourly Weather Sidi Bu-l-Abbas

    Today, 23 January, Wednesday

    Time Temperature Precipitation Wind Pressure Humidity
    00:00 +5°C° 0 mm 13 mps 717 mmHg 89%
    01:00 +5°C° 2.4 mm 13 mps 716 mmHg 90%
    02:00 +5°C° 2.4 mm 13 mps 716 mmHg 90%
    03:00 +5°C° 2.4 mm 13 mps 716 mmHg 91%
    04:00 +7°C° 1.9 mm 13 mps 716 mmHg 90%
    05:00 +7°C° 1.9 mm 13 mps 715 mmHg 89%
    06:00 +7°C° 1.9 mm 13 mps 715 mmHg 89%
    07:00 +7°C° 1 mm 13 mps 716 mmHg 88%
    08:00 +7°C° 1 mm 13 mps 716 mmHg 86%
    09:00 +8°C° 1 mm 13 mps 716 mmHg 85%
    10:00 +8°C° 0.1 mm 13 mps 716 mmHg 84%
    11:00 +8°C° 0.1 mm 14 mps 715 mmHg 82%
    12:00 +8°C° 0.1 mm 14 mps 715 mmHg 80%
    13:00 +8°C° 0.1 mm 14 mps 715 mmHg 81%
    14:00 +8°C° 0.1 mm 14 mps 715 mmHg 81%
    15:00 +8°C° 0.1 mm 14 mps 715 mmHg 82%
    16:00 +8°C° 0.2 mm 14 mps 715 mmHg 83%
    17:00 +8°C° 0.2 mm 13 mps 715 mmHg 84%
    18:00 +8°C° 0.2 mm 13 mps 715 mmHg 86%
    19:00 +8°C° 0.3 mm 13 mps 715 mmHg 86%
    20:00 +8°C° 0.3 mm 13 mps 715 mmHg 87%
    21:00 +8°C° 0.3 mm 12 mps 716 mmHg 87%
    22:00 +8°C° 0.3 mm 12 mps 716 mmHg 88%
    23:00 +8°C° 0.3 mm 12 mps 716 mmHg 88%

    Tomorrow, 24 January, Thursday

    Time Temperature Precipitation Wind Pressure Humidity
    00:00 +8°C° 0.3 mm 12 mps 716 mmHg 89%
    01:00 +8°C° 0.2 mm 12 mps 715 mmHg 89%
    02:00 +8°C° 0.2 mm 12 mps 715 mmHg 89%
    03:00 +8°C° 0.2 mm 11 mps 715 mmHg 89%
    04:00 +8°C° 0.2 mm 11 mps 715 mmHg 90%
    05:00 +8°C° 0.2 mm 11 mps 715 mmHg 90%
    06:00 +8°C° 0.2 mm 10 mps 715 mmHg 90%
    07:00 +8°C° 0.4 mm 10 mps 715 mmHg 90%
    08:00 +8°C° 0.4 mm 11 mps 715 mmHg 89%
    09:00 +8°C° 0.4 mm 11 mps 715 mmHg 88%
    10:00 +9°C° 0.4 mm 11 mps 716 mmHg 86%
    11:00 +9°C° 0.4 mm 11 mps 716 mmHg 84%
    12:00 +11°C° 0.4 mm 11 mps 716 mmHg 83%
    13:00 +11°C° 0.3 mm 11 mps 716 mmHg 81%
    14:00 +11°C° 0.3 mm 10 mps 715 mmHg 80%
    15:00 +11°C° 0.3 mm 10 mps 715 mmHg 79%
    16:00 +10°C° 0.1 mm 9 mps 715 mmHg 84%
    17:00 +10°C° 0.1 mm 7 mps 716 mmHg 88%
    18:00 +9°C° 0.1 mm 6 mps 716 mmHg 92%
    19:00 +9°C° 0.1 mm 6 mps 716 mmHg 93%
    20:00 +9°C° 0.1 mm 5 mps 717 mmHg 93%
    21:00 +9°C° 0.1 mm 5 mps 717 mmHg 93%
    22:00 +9°C° 0.1 mm 5 mps 717 mmHg 93%
    23:00 +9°C° 0.1 mm 5 mps 717 mmHg 94%

    Day after tomorrow, 25 January, Friday

    Time Temperature Precipitation Wind Pressure Humidity
    00:00 +8°C° 0.1 mm 5 mps 717 mmHg 94%
    01:00 +8°C° 0.1 mm 6 mps 717 mmHg 93%
    02:00 +9°C° 0.1 mm 6 mps 717 mmHg 91%
    03:00 +9°C° 0.1 mm 6 mps 718 mmHg 90%
    04:00 +8°C° 0.1 mm 5 mps 718 mmHg 90%
    05:00 +8°C° 0.1 mm 4 mps 718 mmHg 91%
    06:00 +8°C° 0.1 mm 4 mps 718 mmHg 91%
    07:00 +10°C° 0.1 mm 4 mps 719 mmHg 85%
    08:00 +10°C° 0.1 mm 4 mps 719 mmHg 80%
    09:00 +11°C° 0.1 mm 4 mps 720 mmHg 74%
    10:00 +12°C° 0.1 mm 5 mps 720 mmHg 70%
    11:00 +12°C° 0.1 mm 5 mps 720 mmHg 65%
    12:00 +13°C° 0.1 mm 6 mps 721 mmHg 61%
    13:00 +13°C° 0 mm 6 mps 720 mmHg 60%
    14:00 +13°C° 0 mm 6 mps 720 mmHg 59%
    15:00 +13°C° 0 mm 5 mps 720 mmHg 58%
    16:00 +12°C° 0 mm 4 mps 720 mmHg 61%
    17:00 +11°C° 0 mm 3 mps 720 mmHg 64%
    18:00 +11°C° 0 mm 1 mps 720 mmHg 68%
    19:00 +10°C° 0 mm 2 mps 720 mmHg 67%
    20:00 +9°C° 0 mm 2 mps 720 mmHg 67%
    21:00 +9°C° 0 mm 2 mps 721 mmHg 66%
    22:00 +9°C° 0 mm 2 mps 721 mmHg 65%
    23:00 +9°C° 0 mm 2 mps 721 mmHg 65%

    26 January, Saturday

    Time Temperature Precipitation Wind Pressure Humidity
    00:00 +9°C° 0 mm 2 mps 721 mmHg 64%
    01:00 +9°C° 0 mm 2 mps 720 mmHg 64%
    02:00 +8°C° 0 mm 2 mps 720 mmHg 65%
    03:00 +8°C° 0 mm 2 mps 720 mmHg 65%
    04:00 +8°C° 0 mm 2 mps 720 mmHg 67%
    05:00 +8°C° 0 mm 2 mps 720 mmHg 68%
    06:00 +8°C° 0 mm 1 mps 720 mmHg 69%
    07:00 +10°C° 0 mm 1 mps 721 mmHg 66%
    08:00 +11°C° 0 mm 1 mps 722 mmHg 62%
    09:00 +12°C° 0 mm 1 mps 722 mmHg 58%
    10:00 +13°C° 0 mm 2 mps 723 mmHg 56%
    11:00 +14°C° 0 mm 2 mps 723 mmHg 54%
    12:00 +15°C° 0 mm 2 mps 723 mmHg 52%
    13:00 +15°C° 0 mm 2 mps 722 mmHg 50%
    14:00 +16°C° 0 mm 2 mps 722 mmHg 48%
    15:00 +16°C° 0 mm 2 mps 721 mmHg 47%
    16:00 +15°C° 0 mm 2 mps 721 mmHg 53%
    17:00 +13°C° 0 mm 1 mps 721 mmHg 59%
    18:00 +12°C° 0 mm 1 mps 721 mmHg 66%
    19:00 +11°C° 0 mm 1 mps 721 mmHg 67%
    20:00 +11°C° 0 mm 1 mps 721 mmHg 69%
    21:00 +10°C° 0 mm 1 mps 721 mmHg 71%
    22:00 +10°C° 0 mm 1 mps 721 mmHg 68%
    23:00 +10°C° 0 mm 1 mps 721 mmHg 65%

    27 January, Sunday

    Time Temperature Precipitation Wind Pressure Humidity
    00:00 +9°C° 0 mm 2 mps 721 mmHg 62%
    01:00 +9°C° 0 mm 2 mps 720 mmHg 58%
    02:00 +9°C° 0 mm 2 mps 720 mmHg 55%
    03:00 +9°C° 0 mm 2 mps 720 mmHg 51%
    04:00 +8°C° 0 mm 2 mps 719 mmHg 51%
    05:00 +8°C° 0 mm 2 mps 719 mmHg 51%
    06:00 +8°C° 0 mm 2 mps 719 mmHg 50%
    07:00 +9°C° 0 mm 2 mps 719 mmHg 50%
    08:00 +12°C° 0 mm 2 mps 719 mmHg 49%
    09:00 +13°C° 0 mm 2 mps 720 mmHg 49%
    10:00 +13°C° 0 mm 4 mps 719 mmHg 46%
    11:00 +15°C° 0 mm 6 mps 719 mmHg 43%
    12:00 +16°C° 0 mm 8 mps 719 mmHg 40%
    13:00 +16°C° 0 mm 9 mps 719 mmHg 42%
    14:00 +16°C° 0 mm 10 mps 718 mmHg 43%
    15:00 +16°C° 0 mm 11 mps 717 mmHg 45%
    16:00 +13°C° 0 mm 9 mps 717 mmHg 55%
    17:00 +11°C° 0 mm 8 mps 717 mmHg 66%
    18:00 +10°C° 0 mm 6 mps 717 mmHg 77%
    19:00 +10°C° 0 mm 5 mps 717 mmHg 81%
    20:00 +9°C° 0 mm 5 mps 717 mmHg 86%
    21:00 +9°C° 0 mm 5 mps 718 mmHg 90%
    22:00 +9°C° 0.1 mm 5 mps 718 mmHg 91%
    23:00 +9°C° 0.1 mm 6 mps 718 mmHg 91%

    28 January, Monday

    Time Temperature Precipitation Wind Pressure Humidity
    00:00 +9°C° 0.1 mm 6 mps 718 mmHg 91%
    01:00 +9°C° 0.2 mm 6 mps 718 mmHg 90%
    02:00 +8°C° 0.2 mm 5 mps 718 mmHg 89%
    03:00 +8°C° 0.2 mm 5 mps 718 mmHg 89%
    04:00 +8°C° 0.1 mm 5 mps 718 mmHg 83%
    05:00 +7°C° 0.1 mm 5 mps 718 mmHg 77%
    06:00 +7°C° 0.1 mm 5 mps 718 mmHg 72%
    07:00 +7°C° 0.1 mm 4 mps 719 mmHg 70%
    08:00 +7°C° 0.1 mm 3 mps 719 mmHg 68%
    09:00 +7°C° 0.1 mm 2 mps 720 mmHg 66%
    10:00 +8°C° 0 mm 3 mps 720 mmHg 64%
    11:00 +8°C° 0 mm 3 mps 720 mmHg 62%
    12:00 +7°C° 0 mm 4 mps 720 mmHg 59%
    13:00 +7°C° 0 mm 4 mps 720 mmHg 57%
    14:00 +8°C° 0 mm 3 mps 720 mmHg 54%
    15:00 +9°C° 0 mm 3 mps 720 mmHg 52%
    16:00 +8°C° 0 mm 3 mps 720 mmHg 55%
    17:00 +7°C° 0 mm 2 mps 720 mmHg 58%
    18:00 +6°C° 0 mm 2 mps 720 mmHg 61%
    19:00 +6°C° 0 mm 2 mps 721 mmHg 63%
    20:00 +6°C° 0 mm 2 mps 721 mmHg 64%
    21:00 +6°C° 0 mm 2 mps 722 mmHg 65%
    22:00 +6°C° 0 mm 2 mps 722 mmHg 65%
    23:00 +6°C° 0 mm 2 mps 722 mmHg 66%
    Show more